sat.trackr.live / text

‹ back to catalog

STARLINK-31616

NORAD 59270 · 2024-050S

PAYLOAD ACTIVE UNKNOWN

§ Identity

Operator
Country
US
Launch date
2024-03-19
Launch site
AFWTR
Launch vehicle
Mass (kg)
RCS (m²)

Purposes: comms

External: N2YO · Heavens-Above · Gunter

§ Orbital elements

Epoch: 2026-05-25T02:18:34.565760Z

Period
94.11 min
Inclination
53.1600°
Eccentricity
0.0001063
Mean motion
15.30188995 rev/d
Perigee alt
474.5 km
Apogee alt
476.0 km
Semi-major
6,853.4 km
B*
1.5934e-5
RAAN
186.3104°
Arg perigee
92.3206°
Mean anomaly
267.7916°
Rev number
12,224

§ Raw data

STARLINK-316161 59270U 24050S   26145.09623340  .00000113  00000+0  15934-4 0  99992 59270  53.1600 186.3104 0001063  92.3206 267.7916 15.30188995122243

JSON: /api/v1/satellites/59270 · /tle

For live sub-satellite position, see the globe view (requires WebGL).

§ Visibility from observer

Set your observer location to see the next 7 days of passes ≥ 10°. The values pass through the URL so the page stays shareable.

No JS? Fill the form by hand. The geolocation button needs JavaScript.